[Iaude] MPEC K147: 2020 JP3 [a=1.58,e=0.24,i=3.9,H=24.5]

mpec at marsden.cfa.harvard.edu mpec at marsden.cfa.harvard.edu
Sat May 23 17:06:52 EDT 2020


M.P.E.C. 2020-K147                                 Issued 2020 May 23, 21:05 UT

     The Minor Planet Electronic Circulars contain information on unusual
         minor planets and routine data on comets.  They are published
    on behalf of Division F of the International Astronomical Union by the
          Minor Planet Center, Smithsonian Astrophysical Observatory,
                          Cambridge, MA 02138, U.S.A.

             Prepared using the Tamkin Foundation Computer Network

                              MPC at CFA.HARVARD.EDU
            URL https://www.minorplanetcenter.net/    ISSN 1523-6714

                                    2020 JP3                                    


Observations:
     K20J03P* C2020 05 15.44476315 26 24.030-18 27 04.15         21.93wUEK147F51
     K20J03P  C2020 05 15.45574915 26 24.156-18 26 51.87         22.13wUEK147F51
     K20J03P  C2020 05 15.46687415 26 24.291-18 26 39.59         21.87wUEK147F51
     K20J03P ^C2020 05 20.35661115 28 51.837-16 54 12.77         21.95GVEK147568
     K20J03P ^C2020 05 20.35755815 28 51.851-16 54 11.68         21.87GVEK147568
     K20J03P  C2020 05 23.40597715 30 32.082-15 55 07.29         21.71wUEK147F51
     K20J03P  C2020 05 23.41819415 30 32.268-15 54 52.75         21.88wUEK147F51
     K20J03P  C2020 05 23.43043515 30 32.490-15 54 38.56         21.60wUEK147F51

Observer details:
568 Mauna Kea.  Observers R. Wainscoat, C. Crowder, T. Burdullis.  Measurers
    R. Weryk, R. Wainscoat.  3.6-m Canada-France-Hawaii Telescope + CCD.
F51 Pan-STARRS 1, Haleakala.  Observers J. Bulger, T. Lowe, A. Schultz, M.
    Willman.  Measurers K. Chambers, S. Chastel, T. de Boer, L. Denneau, J.
    Fairlamb, H. Flewelling, M. Huber, C.-C. Lin, E. Magnier, Y. Ramanjooloo,
    R. Wainscoat, R. Weryk.  1.8-m Ritchey-Chretien + CCD.

Orbital elements:
2020 JP3                                                 Earth MOID = 0.1864 AU
Epoch 2020 May 31.0 TT = JDT 2459000.5                  Veres
M 353.14905              (2000.0)            P               Q
n   0.49733552     Peri.   25.05420     -0.19374331     +0.97949824
a   1.5777435      Node   233.82120     -0.91122466     -0.20051513
e   0.2401215      Incl.    3.92111     -0.36350123     -0.01941370
P   1.98           H   24.5           G   0.15           U   8
Residuals in seconds of arc
200515 F51  0.1-  0.0     200520 568  0.1-  0.0     200523 F51  0.2-  0.1+
200515 F51  0.0   0.1+    200520 568  0.1-  0.0     200523 F51  0.0   0.0
200515 F51  0.1+  0.1-    200523 F51  0.1+  0.1-

Ephemeris:
2020 JP3                 a,e,i = 1.58, 0.24, 4                   q = 1.1989
Date    TT    R. A. (2000) Decl.     Delta      r    Elong.  Phase     V
2020 04 23    15 14 30.5 -23 32 17   0.2686  1.2611   159.8    16.0    23.0
...
2020 05 08    15 22 54.6 -20 34 05   0.2231  1.2312   173.7     5.2    22.1
...
2020 05 16    15 26 40.2 -18 16 24   0.2079  1.2190   178.5     1.2    21.7
...
2020 05 22    15 29 44.0 -16 22 00   0.2006  1.2116   172.6     6.2    21.9
2020 05 23    15 30 17.9 -16 02 35   0.1997  1.2105   171.7     7.0    21.9
2020 05 24    15 30 53.0 -15 43 10   0.1989  1.2095   170.7     7.8    22.0
...
2020 05 30    15 34 55.2 -13 48 48   0.1961  1.2043   165.0    12.6    22.1
...
2020 06 07    15 42 03.3 -11 31 26   0.1971  1.2000   158.1    18.4    22.3
...
2020 06 22    16 01 22.1 -08 37 29   0.2124  1.2006   147.3    27.2    22.8

M. P. C. Staff               (C) Copyright 2020 MPC           M.P.E.C. 2020-K147




More information about the Iaude mailing list